Latest Weather Observations for Campania

IDT60901

Issued at 1:51 pm EST Monday 2 May 2016 (issued every 10 minutes, with the page automatically refreshed every 10 minutes)

About weather observations | Map of Hobart area stations | Latest observations for Hobart area | Other Formats
Station Details ID: 094212 Name: CAMPANIA (KINCORA) Lat: -42.69 Lon: 147.43 Height: 45.0 m
Data from the previous 72 hours. | See also: Recent months at Campania
Date/Time
EST
Tmp

°C
App
Tmp
°C
Dew
Point
°C
Rel
Hum
%
Delta-T

°C
Wind Press
QNH
hPa
Press
MSL
hPa
Rain
since
9 am
mm
Dir
 
Spd
km/h
Gust
km/h
Spd
kts
Gust
kts
02/01:30pm 17.0 10.4 4.3 43 6.0 NNW 28 41 15 22 - - 0.0
02/01:00pm 17.2 9.3 4.5 43 6.0 NW 35 52 19 28 - - 0.0
02/12:35pm 16.5 9.8 3.9 43 5.9 NW 28 46 15 25 - - 0.0
02/12:30pm 16.7 10.2 4.7 45 5.7 NNW 28 43 15 23 - - 0.0
02/12:00pm 15.8 8.5 5.4 50 5.0 NW 33 54 18 29 - - 0.0
02/11:44am 16.2 9.8 5.2 48 5.2 NW 28 48 15 26 - - 0.0
02/11:30am 15.7 8.9 5.3 50 5.0 NNW 30 41 16 22 - - 0.0
02/11:02am 15.1 8.8 5.6 53 4.5 NNW 28 54 15 29 - - 0.0
02/11:00am 15.0 8.9 5.0 51 4.7 NNW 26 44 14 24 - - 0.0
02/10:30am 14.6 8.9 4.9 52 4.5 NNW 24 39 13 21 - - 0.0
02/10:00am 13.7 8.6 5.8 59 3.7 N 22 33 12 18 - - 0.0
02/09:30am 12.7 7.5 5.4 61 3.4 N 22 43 12 23 - - 0.0
02/09:00am 12.3 7.6 5.0 61 3.4 N 19 26 10 14 - - 2.4
02/08:30am 11.5 5.8 4.7 63 3.1 N 24 30 13 16 - - 2.4
02/08:00am 10.9 5.5 4.4 64 2.9 N 22 32 12 17 - - 2.4
02/07:30am 9.9 5.0 3.9 66 2.6 N 19 24 10 13 - - 2.4
02/07:00am 10.8 5.7 4.0 63 3.0 N 20 35 11 19 - - 2.4
02/06:30am 10.4 5.8 3.9 64 2.9 N 17 22 9 12 - - 2.4
02/06:00am 9.7 4.8 3.9 67 2.5 N 19 30 10 16 - - 2.4
02/05:30am 9.6 5.8 4.0 68 2.5 NNW 13 19 7 10 - - 2.4
02/05:00am 9.1 5.6 3.7 69 2.3 NNW 11 17 6 9 - - 2.4
02/04:30am 9.3 5.8 3.5 67 2.5 N 11 20 6 11 - - 2.4
02/04:00am 9.0 5.4 3.2 67 2.5 N 11 17 6 9 - - 2.4
02/03:30am 9.5 4.8 3.3 65 2.7 NNW 17 24 9 13 - - 2.4
02/03:00am 9.3 4.9 2.9 64 2.7 NNW 15 24 8 13 - - 2.4
02/02:30am 9.5 5.1 2.8 63 2.9 NNW 15 22 8 12 - - 2.4
02/02:00am 9.6 4.6 3.4 65 2.7 NW 19 24 10 13 - - 2.4
02/01:30am 9.6 5.7 3.4 65 2.7 N 13 19 7 10 - - 2.4
02/01:00am 9.9 3.5 3.0 62 3.0 NW 26 37 14 20 - - 2.4
02/12:30am 9.8 4.2 3.3 64 2.8 WNW 22 35 12 19 - - 2.4
02/12:00am 9.8 4.2 3.5 65 2.7 NW 22 32 12 17 - - 2.4
 
Date/Time
EST
Tmp

°C
App
Tmp
°C
Dew
Point
°C
Rel
Hum
%
Delta-T

°C
Wind Press
QNH
hPa
Press
MSL
hPa
Rain
since
9 am
mm
Dir
 
Spd
km/h
Gust
km/h
Spd
kts
Gust
kts
01/11:30pm 10.2 5.0 3.3 62 3.0 WNW 20 32 11 17 - - 2.4
01/11:00pm 10.5 3.3 2.8 59 3.3 WNW 30 56 16 30 - - 2.4
01/10:43pm 10.4 3.1 2.7 59 3.3 WNW 30 48 16 26 - - 2.4
01/10:30pm 10.1 3.4 3.4 63 2.9 WNW 28 44 15 24 - - 2.4
01/10:00pm 10.5 2.0 3.3 61 3.1 W 37 59 20 32 - - 2.4
01/09:34pm 10.8 3.3 3.4 60 3.2 W 32 50 17 27 - - 2.4
01/09:30pm 10.9 3.2 3.5 60 3.3 W 33 50 18 27 - - 2.4
01/09:20pm 10.8 3.7 3.8 62 3.1 WNW 30 54 16 29 - - 2.4
01/09:00pm 11.2 4.9 4.0 61 3.2 WNW 26 44 14 24 - - 2.4
01/08:30pm 11.8 3.4 3.8 58 3.6 W 37 65 20 35 - - 2.4
01/08:29pm 11.9 2.7 3.7 57 3.7 W 41 65 22 35 - - 2.4
01/08:05pm 11.7 5.2 4.7 62 3.2 NW 28 48 15 26 - - 2.4
01/08:00pm 11.7 4.8 4.7 62 3.2 NW 30 48 16 26 - - 2.4
01/07:30pm 11.7 4.5 4.9 63 3.1 W 32 57 17 31 - - 2.4
01/07:00pm 11.7 3.3 5.6 66 2.8 W 39 57 21 31 - - 2.4
01/06:49pm 11.8 3.4 5.7 66 2.8 W 39 76 21 41 - - 2.4
01/06:30pm 11.5 4.6 6.6 72 2.3 W 32 50 17 27 - - 2.4
01/06:00pm 12.3 3.2 6.8 69 2.6 WNW 44 74 24 40 - - 2.4
01/05:30pm 12.7 3.7 7.2 69 2.7 W 44 69 24 37 - - 2.2
01/05:26pm 12.8 4.1 7.5 70 2.6 WNW 43 69 23 37 - - 2.2
01/05:13pm 13.1 7.5 8.8 75 2.2 WNW 28 46 15 25 - - 2.2
01/05:00pm 12.7 7.6 9.2 79 1.8 WNW 26 41 14 22 - - 2.2
01/04:30pm 14.7 9.7 8.0 64 3.4 WNW 24 39 13 21 - - 1.8
01/04:24pm 15.0 9.2 7.8 62 3.6 NW 28 46 15 25 - - 1.8
01/04:00pm 15.6 10.2 7.9 60 3.9 WNW 26 37 14 20 - - 1.8
01/03:30pm 16.3 12.7 8.5 60 4.0 WNW 17 28 9 15 - - 1.8
01/03:00pm 15.8 12.8 10.8 72 2.7 N 17 20 9 11 - - 1.8
01/02:30pm 15.6 12.9 10.2 70 2.8 N 15 19 8 10 - - 1.8
01/02:00pm 15.3 12.5 10.1 71 2.7 N 15 20 8 11 - - 1.8
01/01:30pm 14.8 11.2 8.5 66 3.2 N 17 26 9 14 - - 1.8
01/01:00pm 14.5 10.3 7.5 63 3.5 NW 19 26 10 14 - - 1.8
01/12:30pm 13.6 9.8 7.6 67 3.0 N 17 24 9 13 - - 1.8
01/12:00pm 14.0 7.1 9.0 72 2.5 NNW 35 61 19 33 - - 1.6
01/11:51am 15.1 7.7 9.7 70 2.8 NW 39 61 21 33 - - 1.6
01/11:48am 16.6 10.9 11.3 71 2.9 N 32 39 17 21 - - 1.4
01/11:30am 16.1 16.2 13.8 86 1.3 N 6 7 3 4 - - 1.4
01/11:00am 13.7 13.1 12.3 91 0.8 N 7 11 4 6 - - 1.4
01/10:30am 13.0 13.5 11.6 91 0.7 CALM 0 6 0 3 - - 1.4
01/10:00am 13.0 12.1 11.4 90 0.8 ENE 7 11 4 6 - - 1.4
01/09:30am 13.0 12.1 11.2 89 1.0 NNE 7 11 4 6 - - 0.6
01/09:00am 13.0 10.0 10.7 86 1.2 WNW 17 28 9 15 - - 3.2
01/08:30am 14.9 9.7 10.1 73 2.5 W 28 41 15 22 - - 1.0
01/08:00am 14.7 10.0 13.2 91 0.8 W 30 46 16 25 - - 1.0
01/07:59am 14.5 10.2 13.2 92 0.7 W 28 46 15 25 - - 1.0
01/07:30am 12.4 12.1 11.5 94 0.5 S 4 9 2 5 - - 0.4
01/07:00am 12.1 12.1 11.0 93 0.6 NE 2 7 1 4 - - 0.4
01/06:30am 12.7 12.1 11.6 93 0.6 SW 6 9 3 5 - - 0.4
01/06:00am 12.8 11.9 11.5 92 0.7 WSW 7 9 4 5 - - 0.4
01/05:30am 12.8 11.9 11.4 91 0.7 ESE 7 11 4 6 - - 0.4
01/05:00am 12.8 12.1 11.4 91 0.7 W 6 13 3 7 - - 0.4
01/04:30am 13.4 11.8 11.6 89 1.0 NNE 11 13 6 7 - - 0.4
01/04:00am 13.9 12.0 11.8 87 1.1 N 13 13 7 7 - - 0.4
01/03:30am 14.9 12.9 12.6 86 1.3 N 15 17 8 9 - - 0.4
01/03:00am 13.8 12.9 11.3 85 1.3 NW 7 15 4 8 - - 0.4
01/02:30am 15.6 13.7 12.9 84 1.5 N 15 19 8 10 - - 0.4
01/02:00am 14.6 13.8 12.8 89 1.0 N 9 15 5 8 - - 0.4
01/01:30am 15.2 13.8 13.4 89 1.0 N 13 17 7 9 - - 0.4
01/01:00am 15.7 13.5 13.2 85 1.4 N 17 20 9 11 - - 0.2
01/12:30am 15.9 14.0 13.0 83 1.6 N 15 17 8 9 - - 0.0
01/12:00am 16.0 13.9 12.4 79 2.0 N 15 17 8 9 - - 0.0
 
Date/Time
EST
Tmp

°C
App
Tmp
°C
Dew
Point
°C
Rel
Hum
%
Delta-T

°C
Wind Press
QNH
hPa
Press
MSL
hPa
Rain
since
9 am
mm
Dir
 
Spd
km/h
Gust
km/h
Spd
kts
Gust
kts
30/11:30pm 16.3 13.5 12.7 79 2.0 N 19 20 10 11 - - 0.0
30/11:00pm 16.9 14.9 12.8 77 2.3 N 15 17 8 9 - - 0.0
30/10:30pm 16.8 14.7 12.3 75 2.5 N 15 19 8 10 - - 0.0
30/10:00pm 17.5 14.5 12.6 73 2.7 N 20 28 11 15 - - 0.0
30/09:30pm 17.4 14.3 12.1 71 2.9 N 20 24 11 13 - - 0.0
30/09:00pm 17.1 13.9 11.8 71 2.9 NW 20 30 11 16 - - 0.0
30/08:30pm 17.0 13.9 11.7 71 2.9 N 19 26 10 14 - - 0.0
30/08:00pm 16.4 14.1 11.8 74 2.5 N 15 19 8 10 - - 0.0
30/07:30pm 17.1 14.4 11.8 71 2.9 N 17 24 9 13 - - 0.0
30/07:00pm 17.4 14.6 11.4 68 3.3 N 17 22 9 12 - - 0.0
30/06:30pm 17.8 14.4 11.4 66 3.5 N 20 28 11 15 - - 0.0
30/06:00pm 18.9 15.4 11.0 60 4.3 N 20 30 11 16 - - 0.0
30/05:30pm 19.3 15.1 11.1 59 4.5 N 24 32 13 17 - - 0.0
30/05:00pm 20.0 15.7 9.3 50 5.7 N 22 32 12 17 - - 0.0
30/04:30pm 21.1 18.3 8.7 45 6.5 N 13 20 7 11 - - 0.0
30/04:00pm 22.2 16.7 7.6 39 7.6 NNW 26 35 14 19 - - 0.0
30/03:30pm 21.7 14.8 7.2 39 7.5 NNW 33 46 18 25 - - 0.0
30/03:00pm 22.3 15.8 8.1 40 7.5 NNW 32 50 17 27 - - 0.0
30/02:55pm 22.1 16.5 8.6 42 7.2 NNW 28 50 15 27 - - 0.0
30/02:30pm 20.9 17.0 12.1 57 4.9 N 24 33 13 18 - - 0.0
30/02:00pm 20.8 17.1 11.4 55 5.2 N 22 30 12 16 - - 0.0
30/01:30pm 21.7 17.5 11.1 51 5.9 N 24 39 13 21 - - 0.0
30/01:00pm 20.5 15.7 11.7 57 4.9 N 28 39 15 21 - - 0.0
30/12:30pm 20.8 15.2 11.4 55 5.2 N 32 39 17 21 - - 0.0
30/12:00pm 20.4 15.9 11.3 56 5.0 N 26 39 14 21 - - 0.0
30/11:30am 20.3 16.2 11.5 57 4.9 N 24 33 13 18 - - 0.0
30/11:00am 19.1 13.7 10.9 59 4.5 N 30 39 16 21 - - 0.0
30/10:30am 18.5 13.2 11.3 63 3.9 N 30 35 16 19 - - 0.0
30/10:00am 17.6 13.0 10.9 65 3.6 N 26 39 14 21 - - 0.0
30/09:30am 17.1 13.5 10.5 65 3.5 N 20 28 11 15 - - 0.0
30/09:00am 15.7 11.4 10.7 72 2.7 N 24 32 13 17 - - 1.8
30/08:30am 15.0 11.4 10.6 75 2.3 NNW 20 30 11 16 - - 1.8
30/08:00am 14.2 10.8 10.4 78 2.0 NNW 19 24 10 13 - - 1.8
30/07:30am 13.2 11.3 10.6 84 1.4 N 11 17 6 9 - - 1.8
30/07:00am 12.1 10.3 9.5 84 1.3 NW 9 15 5 8 - - 1.8
30/06:30am 11.9 10.7 9.6 86 1.2 WNW 6 9 3 5 - - 1.8
30/06:00am 12.1 10.4 9.8 86 1.2 WNW 9 13 5 7 - - 1.8
30/05:30am 11.0 10.3 8.4 84 1.3 SE 2 7 1 4 - - 1.8
30/05:00am 11.8 10.6 9.4 85 1.2 N 6 9 3 5 - - 1.8
30/04:30am 11.3 8.9 8.7 84 1.3 N 11 15 6 8 - - 1.8
30/04:00am 12.0 9.6 10.1 88 1.0 N 13 15 7 8 - - 1.8
30/03:30am 11.4 8.9 9.7 89 0.9 N 13 17 7 9 - - 1.8
30/03:00am 10.8 8.9 9.1 89 0.8 NNW 9 13 5 7 - - 1.8
30/02:30am 11.3 9.9 9.4 88 1.0 N 7 13 4 7 - - 1.8
30/02:00am 11.1 9.2 9.2 88 1.0 N 9 11 5 6 - - 1.8
30/01:30am 11.6 10.2 9.7 88 1.0 N 7 11 4 6 - - 1.8
30/01:00am 12.3 11.0 10.0 86 1.2 NNW 7 11 4 6 - - 1.8
30/12:30am 14.2 12.3 11.7 85 1.3 N 13 17 7 9 - - 1.8
30/12:00am 15.3 13.1 12.2 82 1.7 N 15 20 8 11 - - 1.8
 
Date/Time
EST
Tmp

°C
App
Tmp
°C
Dew
Point
°C
Rel
Hum
%
Delta-T

°C
Wind Press
QNH
hPa
Press
MSL
hPa
Rain
since
9 am
mm
Dir
 
Spd
km/h
Gust
km/h
Spd
kts
Gust
kts
29/11:30pm 15.5 15.1 12.4 82 1.7 NNE 6 7 3 4 - - 1.8
29/11:00pm 15.6 15.1 12.5 82 1.7 W 7 11 4 6 - - 1.8
29/10:30pm 15.2 14.7 12.5 84 1.5 NNW 7 13 4 7 - - 1.8
29/10:00pm 14.6 14.0 11.6 82 1.6 N 6 7 3 4 - - 1.8
29/09:30pm 15.3 14.5 11.7 79 1.9 W 7 11 4 6 - - 1.8
29/09:00pm 15.5 13.8 12.3 81 1.8 N 13 17 7 9 - - 1.8
29/08:30pm 15.3 14.7 11.7 79 1.9 SE 6 7 3 4 - - 1.8
29/08:00pm 16.2 15.4 11.2 72 2.7 WNW 6 7 3 4 - - 1.8
29/07:30pm 16.2 15.4 11.8 75 2.4 N 7 13 4 7 - - 1.8
29/07:00pm 16.2 13.2 12.0 76 2.3 N 19 26 10 14 - - 1.8
29/06:30pm 16.4 13.4 12.4 77 2.2 N 20 28 11 15 - - 1.8
29/06:00pm 16.2 14.0 13.3 83 1.6 N 17 20 9 11 - - 1.6
29/05:30pm 16.7 14.1 13.8 83 1.6 N 20 28 11 15 - - 1.0
29/05:00pm 16.7 15.1 14.0 84 1.5 N 15 20 8 11 - - 0.8
29/04:30pm 17.4 14.4 13.7 79 2.1 N 22 33 12 18 - - 0.2
29/04:00pm 18.2 14.0 13.5 74 2.7 N 28 41 15 22 - - 0.0
29/03:30pm 19.5 14.3 12.7 65 3.8 N 32 39 17 21 - - 0.0
29/03:00pm 19.9 14.1 12.7 63 4.1 N 35 48 19 26 - - 0.0
29/02:30pm 20.9 15.3 12.1 57 4.9 N 33 46 18 25 - - 0.0
29/02:00pm 21.3 15.8 12.4 57 5.0 N 33 43 18 23 - - 0.0

Latest Capital City Observations: Canberra | Sydney | Melbourne | Brisbane | Adelaide | Perth | Hobart | Darwin

Other Formats:

Comma delimited format used in spreadsheet applications
http://www.bom.gov.au/fwo/IDT60901/IDT60901.95972.axf

JavaScript Object Notation format (JSON) in row-major order
http://www.bom.gov.au/fwo/IDT60901/IDT60901.95972.json